TimeMDT,TemperatureF,Dew PointF,Humidity,Sea Level PressureIn,VisibilityMPH,Wind Direction,Wind SpeedMPH,Gust SpeedMPH,PrecipitationIn,Events,Conditions,WindDirDegrees,DateUTC
12:53 AM,39.9,28.9,65,30.12,10.0,South,5.8,-,N/A,,Clear,170,2013-04-21 06:53:00
1:53 AM,39.9,28.9,65,30.13,10.0,SSW,6.9,-,N/A,,Clear,210,2013-04-21 07:53:00
2:53 AM,39.0,28.9,67,30.12,10.0,SSW,8.1,-,N/A,,Clear,210,2013-04-21 08:53:00
3:53 AM,37.9,28.0,68,30.10,10.0,Calm,Calm,-,N/A,,Clear,0,2013-04-21 09:53:00
4:53 AM,37.0,28.0,70,30.10,10.0,Calm,Calm,-,N/A,,Clear,0,2013-04-21 10:53:00
5:53 AM,37.9,28.0,68,30.10,10.0,SSW,4.6,-,N/A,,Clear,200,2013-04-21 11:53:00
6:53 AM,37.0,28.0,70,30.10,10.0,South,4.6,-,N/A,,Clear,190,2013-04-21 12:53:00
7:53 AM,37.9,28.9,70,30.12,10.0,South,5.8,-,N/A,,Partly Cloudy,190,2013-04-21 13:53:00
8:53 AM,42.1,30.0,62,30.13,10.0,South,4.6,-,N/A,,Scattered Clouds,190,2013-04-21 14:53:00
9:53 AM,46.9,30.0,52,30.13,10.0,SW,8.1,-,N/A,,Clear,230,2013-04-21 15:53:00
10:53 AM,51.1,30.9,46,30.11,10.0,WSW,9.2,-,N/A,,Clear,240,2013-04-21 16:53:00
11:53 AM,54.0,32.0,43,30.10,10.0,WSW,11.5,-,N/A,,Clear,240,2013-04-21 17:53:00
12:53 PM,57.0,30.9,37,30.06,10.0,West,15.0,-,N/A,,Clear,260,2013-04-21 18:53:00
1:53 PM,60.1,26.1,27,30.03,10.0,WSW,18.4,23.0,N/A,,Partly Cloudy,250,2013-04-21 19:53:00
2:53 PM,61.0,25.0,25,30.01,10.0,West,20.7,28.8,N/A,,Clear,270,2013-04-21 20:53:00
3:53 PM,63.0,24.1,23,30.00,10.0,West,21.9,29.9,N/A,,Clear,260,2013-04-21 21:53:00
4:53 PM,60.1,24.1,25,29.98,10.0,West,24.2,28.8,N/A,,Clear,270,2013-04-21 22:53:00
5:53 PM,60.1,27.0,28,29.97,10.0,West,19.6,27.6,N/A,,Mostly Cloudy,280,2013-04-21 23:53:00
6:53 PM,57.9,27.0,31,29.97,10.0,West,17.3,25.3,N/A,,Clear,270,2013-04-22 00:53:00
7:53 PM,55.0,27.0,34,29.97,10.0,West,12.7,-,N/A,,Clear,260,2013-04-22 01:53:00
8:53 PM,48.9,28.0,44,29.96,10.0,WSW,8.1,-,N/A,,Clear,240,2013-04-22 02:53:00
9:53 PM,50.0,28.0,43,29.97,10.0,SW,9.2,-,N/A,,Mostly Cloudy,220,2013-04-22 03:53:00
10:53 PM,48.0,28.9,48,29.97,10.0,SW,10.4,-,N/A,,Scattered Clouds,220,2013-04-22 04:53:00
11:53 PM,45.0,30.0,56,29.98,10.0,SW,9.2,-,N/A,,Clear,230,2013-04-22 05:53:00